Content
SEND FEEDBACK

Daily
Averages
Monthly
Summary
United States of America

MOUNT SHASTA, CALIFORNIA


Home > North America > United States > California
Elevation: 3679 feet     Latitude: 41 19N     Longitude: 122 19W

WEATHER
 
SELECT A DAY
Number of Records: 235,025;   Date Range: 1/1/95 - 11/21/14
 
SHARE

PRINT THIS DATA

[ ← Previous Day ]
WEATHER ALMANAC - DECEMBER 25, 2013
[ Next Day → ]
[ °C ]   °F
Weather ElementAverageHighLow
Temperature35 °F51.1 °F (1:56 pm)24.1 °F (6:56 am)
Dewpoint23.2 °F30.9 °F (9:56 am)15.1 °F (5:56 am)
Humidity63.2 %82 % (7:56 am)41 % (1:56 pm)
Barometer30.51 in30.56 in (7:56 am)30.43 in (1:56 pm)
Wind Speed5.1 mph10.4 mph (10:56 am)
Wind Gust21.9 mph (10:56 am)
Weather ElementAverage
Visibility9.8 mi
Wind DirectionESE (113.9 °)

Weather ElementTotal
Precipitation---
Heating Degree Days27.4 (Base 65)
Averaged from 23 records on December 25, 2013
WEATHER CONDITIONS BREAKOUT
WIND DIRECTION BREAKOUT
WEATHER BY HOUR - DECEMBER 25, 2013
[ °C ]   °F
Local TimeTemperatureDewpointHumidityBarometerVisibilityWind DirectionWind SpeedGust SpeedPrecipitationEventsConditions
1:56 AM28.0 °F17.1 °F63 %30.51 in10.0 miCalmClear
2:56 AM26.1 °F17.1 °F69 %30.52 in10.0 miVariable3.5 mphClear
3:56 AM27.0 °F19.0 °F72 %30.53 in10.0 miNorth (10°)4.6 mphClear
4:56 AM26.1 °F16.0 °F66 %30.54 in10.0 miVariable3.5 mphClear
5:56 AM25.0 °F15.1 °F66 %30.54 in10.0 miENE (70°)4.6 mphClear
6:56 AM24.1 °F15.1 °F69 %30.55 in10.0 miNE (50°)3.5 mphClear
7:56 AM30.0 °F25.0 °F82 %30.56 in9.0 miVariable3.5 mphClear
8:56 AM30.0 °F19.0 °F64 %30.56 in10.0 miENE (60°)3.5 mphClear
9:56 AM39.9 °F30.9 °F70 %30.55 in10.0 miVariable6.9 mphClear
10:56 AM42.1 °F30.0 °F62 %30.55 in10.0 miNNW (330°)10.4 mph21.9 mphClear
11:56 AM44.1 °F30.9 °F60 %30.51 in10.0 miWNW (300°)8.1 mphClear
12:56 PM50.0 °F28.0 °F43 %30.45 in10.0 miNW (320°)9.2 mphClear
1:56 PM51.1 °F28.0 °F41 %30.43 in10.0 miNW (310°)8.1 mphClear
2:56 PM46.9 °F30.0 °F52 %30.45 in10.0 miWNW (300°)6.9 mphClear
3:56 PM45.0 °F28.9 °F53 %30.46 in10.0 miWNW (300°)6.9 mphClear
4:56 PM42.1 °F27.0 °F55 %30.47 in10.0 miVariable5.8 mphClear
5:56 PM35.1 °F26.1 °F70 %30.49 in8.0 miCalmClear
6:56 PM32.0 °F24.1 °F73 %30.51 in9.0 miNorth (350°)4.6 mphClear
7:56 PM30.9 °F21.9 °F69 %30.51 in10.0 miNE (50°)3.5 mphClear
8:56 PM32.0 °F21.9 °F66 %30.51 in10.0 miENE (60°)3.5 mphClear
9:56 PM32.0 °F21.0 °F64 %30.50 in10.0 miENE (60°)4.6 mphClear
10:56 PM30.9 °F19.9 °F64 %30.49 in10.0 miVariable4.6 mphClear
11:56 PM34.0 °F21.9 °F61 %30.48 in10.0 miNE (50°)6.9 mphClear
Hourly data recorded from KMHS, located miles away from Mount Shasta, California







STORIES FROM OUR PARTNERS